Weather in Cholpon-Ata

Kyrgyzstan     42°38′59″N   77°05′08″E
temp.,
°C
wind,
m/s
gust,
m/s
humid.,
%
clouds,
%
prec.,
mm/h
press.,
hPa
HPBL,
m
19 september, sun
sun1900:00+7nne11480 0.0 101810
03:00+6nnw11480 0.0 101610
06:00+5nnw11460 0.0 101711
09:00+11sw01350 0.0 1017283
12:00+14ssw34340 0.0 10161383
15:00+15ssw35332 0.0 10141850
18:00+12nnw45421 0.0 1016378
21:00+7n66470 0.0 1020101
20 september, mon
mon2000:00+7n22450 0.0 101818
03:00+6ese01540 0.0 101813
06:00+4e01601 0.0 101912
09:00+9ssw11410 0.0 1019338
12:00+12ssw353728 0.0 10161548
15:00+13sw263770 0.0 10142101
18:00+11nnw224121 0.0 1016620
21:00+8ne11489 0.0 101811
21 september, tue
tue2100:00+6wnw01581 0.0 101813
03:00+5nw11580 0.0 101712
06:00+4wnw115415 0.0 101612
09:00+8sw12411 0.0 1016390
12:00+11ssw44414 0.0 10141252
15:00+12sw363513 0.0 10121886
18:00+9nnw334523 0.0 1014324
21:00+6n334465 0.1 101639
22 september, wed
wed2200:00+5n22514 0.2 101625
03:00+3n11521 0.0 101612
06:00+3wnw11550 0.0 101613
09:00+6sw22442 0.0 1016424
12:00+9ssw454337 0.0 10141290
15:00+10sw3639100 0.0 10121907
18:00+9wnw134460 0.0 1014836
21:00+7n1150100 0.1 101656
23 september, thu
thu2300:00+4ne117043 0.5 101732
03:00+3nw116548 0.1 101712
06:00+2nw116180 0.1 101713
09:00+6sw1246100 0.0 1018348
12:00+9ssw454114 0.0 10161279
15:00+10ssw363734 0.0 10141840
18:00+9wnw13423 0.0 1015584
21:00+5n115144 0.0 101717